Regional Weather Roundup
Issued by NWS

Home | Current Version | Previous Version | Graphics & Text | Print | Product List | Glossary On
Versions: 1 2 3 4 5 6 7 8 9 10 11 12 13 14 15 16 17 18 19 20 21 22 23 24 25 26 27 28 29 30 31 32 33 34 35 36 37 38 39 40 41 42 43 44 45 46 47 48 49 50
000
ASUS43 KIND 120359
RWRIN

WEATHER ROUNDUP FOR INDIANA
NATIONAL WEATHER SERVICE INDIANAPOLIS IN
1200 AM EDT SAT JUL 12 2014

NOTE: "FAIR" INDICATES FEW OR NO CLOUDS BELOW 12,000 FEET WITH NO
SIGNIFICANT WEATHER AND/OR OBSTRUCTIONS TO VISIBILITY.

* - STATION DOES NOT REPORT WEATHER SUCH AS PRECIPITATION OR FOG.

+ - STATION NOT QUALITY CONTROLLED BY THE NATIONAL WEATHER SERVICE.
    USE DATA WITH CAUTION...ESPECIALLY DEWPOINT AND RELATIVE
    HUMIDITY OBSERVATIONS.

INZ001>003-010>013-019-020-120500-
NORTHWEST INDIANA

CITY           SKY/WX    TMP DP  RH WIND       PRES   REMARKS
RENSSELAER +   CLOUDY    70  64  83 NE3       30.16R
VALPARAISO     CLOUDY    68  63  84 CALM      30.16S

$$

LMZ046-743>745-120500-
SOUTHERN LAKE MICHIGAN

STATION/POSITION TIME  TEMP WIND        PRES
                       AIR  DIR/SP/G
                 (UTC) (F)  (DEG/KT/KT) (MB)
MICHIGAN CITY    0300   74  130/  6/  8   N/A

$$

INZ004-005-014>016-021>024-120500-
NORTH CENTRAL INDIANA

CITY           SKY/WX    TMP DP  RH WIND       PRES   REMARKS
GOSHEN         CLOUDY    70  64  81 SE3       30.17S
SOUTH BEND     CLOUDY    73  60  63 S3        30.16S

$$

INZ006>009-017-018-025>027-120500-
NORTHEAST INDIANA

CITY           SKY/WX    TMP DP  RH WIND       PRES   REMARKS
ANGOLA *+      PTCLDY    66  59  77 CALM      30.19R
FORT WAYNE     MOCLDY    72  63  73 CALM      30.19R

$$

INZ028-029-035-036-043>045-051>053-120500-
WEST CENTRAL INDIANA

CITY           SKY/WX    TMP DP  RH WIND       PRES   REMARKS
GREENCASTLE +  PTCLDY    66  63  88 CALM      30.17F
LAFAYETTE      MOCLDY    69  61  75 CALM      30.15S
TERRE HAUTE    MOCLDY    72  63  73 SE3       30.15S

$$

INZ030>032-037>040-046>048-054>057-064-065-120500-
CENTRAL INDIANA

CITY           SKY/WX    TMP DP  RH WIND       PRES   REMARKS
INDIANAPOLIS   MOCLDY    73  59  61 CALM      30.16S
-EAGLE CREEK   CLEAR     69  62  78 CALM      30.16F
KOKOMO *+      PTCLDY    66  61  82 SE5       30.17S
MT COMFORT *+  PTCLDY    64  64 100 CALM      30.19S
SHELBYVILLE    MOCLDY    67  61  81 CALM      30.17F

$$

INZ033-034-041-042-049-050-058-059-120500-
EAST CENTRAL INDIANA

CITY           SKY/WX    TMP DP  RH WIND       PRES   REMARKS
MUNCIE         PTCLDY    69  61  75 S3        30.18S

$$

INZ060-061-067>069-081>083-085>088-120500-
SOUTHWEST INDIANA

CITY           SKY/WX    TMP DP  RH WIND       PRES   REMARKS
EVANSVILLE     PTCLDY    74  65  73 CALM      30.15F
HUNTINGBURG *+ PTCLDY    70  63  78 S5        30.16F

$$

INZ062-063-066-070>080-084-089>092-120500-
SOUTH CENTRAL AND SOUTHEAST INDIANA

CITY           SKY/WX    TMP DP  RH WIND       PRES   REMARKS
BLOOMINGTON    PTCLDY    64  61  90 CALM      30.17F

$$




USA.gov is the U.S. government's official web portal to all federal, state and local government web resources and services.